Location: Unspecified
(0.0000°N, 0.0000°E)
Time: 15:35:20
(UTC+00:00)

SR - Pass Details

Date: 25 November 2019
Orbit: 583 x 872 km, 66.7° (Epoch: 08 July)

Event Time Altitude Azimuth Distance (km) Brightness Sun altitude
Rises 12:02:28 0° 213° (SSW) 2,934 ? 68.9°
Reaches altitude 10° 12:04:45 10° 220° (SW) 2,063 ? 68.8°
Maximum altitude 12:09:10 42° 291° (WNW) 984 ? 68.6°
Drops below altitude 10° 12:13:56 10° 1° (N) 2,229 ? 68.2°
Sets 12:16:31 0° 8° (N) 3,201 ? 68.0°
